WILDFIRE 10

导读

WILDFIRE 10是一颗美国发射的对地观测卫星,于2023年9月2日发射升空。该卫星聚焦野火监测领域,依托星载传感器捕捉高温热源与火情信息,能够快速定位野火发生区域、跟踪火势蔓延趋势,为森林防火应急响应提供及时的遥感数据支持。它补充了现有全球野火监测网络的观测能力,助力提升野火防控与灾害评估效率,服务于林业保护、气候变化研究和公共安全保障等多个领域,是美国在环境遥感监测领域布局的重要空间设施之一。

Basic Information
目录编号:
57766
目录名称:
WILDFIRE 10
国际标识:
2023-133K
轨道中心:
EARTH
卫星名称:
WILDFIRE 10
卫星全名:
--
卫星状态:
在轨 (已飞行1108 天)
发射日期:
2023-09-02 UTC
国别 :
美国 (US)
星等 :
--
This satellite is enrolled in the Space Conjunction Data Service (SCDS) and the current flight risk assessment level is: No High Risk
Orbit Information
数据来源 国际轨道数据 AOE轨道数据
星历时间 2026-09-13T21:47:26+0800
17小时前
查看轨道信息
2026-09-13T00:00:00+0800
1天前
查看轨道信息
半长轴 7322.096km 7322.078km
偏心率 0.0007515 0.0006703
轨道倾角 81.000° 81.000°
近地点辐角 122.037° 120.334°
升交点赤经 282.625° 283.496°
平近点角 238.152° 33.253°
近地点 938.456km 939.033km
远地点 949.462km 948.849km
周期 103.923分钟 103.923分钟
每日圈数 13.856376 13.856429
Detailed Information
使用方式:
暂无
2D Orbit Map
3D Orbit Map
Orbit Altitude Analysis Chart
Orbit Inclination Analysis Chart
Orbit Comprehensive Analysis Chart
View Comprehensive Chart
Conjunction Data List
Event ID Objects TCA Miss Dist (km) Collision Risk Probability Collision Risk Index (CRI) Action
CDM_260915-190504-226805-776623
2026-09-15T
19:05:20+0000
2.566 km
极远距离
1.668674E-6 低风险 0.39
Miss Distance Evolution Trend with All Objects Subscribe to Flight Safety Assessment
Collision Probability Evolution Trend with All Objects Subscribe to Flight Safety Assessment